Montrose, CO

6:57 PM MDT on August 27, 2016 (GMT -0600)
Montrose Regional

Weather History for KMTJ - May, 2014

Change the Weather History Date:

Monday, May 26, 2014

  Actual Average Record
Temperature  
Mean Temperature 60 °F 62 °F  
Max Temperature 75 °F 77 °F 88 °F (2006)
Min Temperature 44 °F 46 °F 36 °F (1997)
Degree Days  
Heating Degree Days 5 5  
Month to date heating degree days 223 207  
Since 1 July heating degree days 6119 6145  
Cooling Degree Days 0 1  
Month to date cooling degree days 18 8  
Year to date cooling degree days 18 8  
Growing Degree Days 8 (Base 50)    
Moisture  
Dew Point 40 °F    
Average Humidity 59    
Maximum Humidity 90    
Minimum Humidity 19    
Precipitation  
Precipitation 0.00 in 0.02 in 0.02 in (2015)
Month to date precipitation 1.09 0.99  
Year to date precipitation 3.22 4.21  
Sea Level Pressure  
Sea Level Pressure 30.07 in    
Wind  
Wind Speed 5 mph (SE)    
Max Wind Speed 13 mph    
Max Gust Speed 15 mph    
Visibility 10 miles    
Events      
T = Trace of Precipitation, MM = Missing Value Source: NWS Daily Summary

Daily Weather History Graph

Daily Weather History Graph

Search for Another Location

Airport or City:

Trip Planner

Search our weather history database for the weather conditions in past years. The results will help you decide how hot, cold, wet, or windy it might be!

Date:

Astronomy

May. 26, 2014 Rise Set
Actual Time 5:52 AM MDT 8:25 PM MDT
Civil Twilight 5:21 AM MDT 8:56 PM MDT
Nautical Twilight 4:43 AM MDT 9:34 PM MDT
Astronomical Twilight 4:00 AM MDT 10:17 PM MDT
Moon 4:34 AM MDT (5/26) 6:32 PM MDT (5/26)
Length of Visible Light 15h 35m
Length of Day
14h 33m
Waning Crescent, 4% of the Moon is Illuminated
May 26
Waning Crescent
May 28
New
Jun 5
First Quarter
Jun 12
Full
Jun 19
Last Quarter

Hourly Weather History & Observations

Time (MDT) Temp. Windchill Dew Point Humidity Pressure Visibility Wind Dir Wind Speed Gust Speed Precip Events Conditions
12:31 AM 50.0 °F - 46.0 °F 86% 30.17 in 10.0 mi Calm Calm - N/A   Mostly Cloudy
12:53 AM 50.0 °F - 45.0 °F 83% 30.04 in 10.0 mi ESE 4.6 mph - N/A   Mostly Cloudy
1:53 AM 46.9 °F - 42.1 °F 83% 30.04 in 10.0 mi SE 6.9 mph - N/A   Scattered Clouds
2:53 AM 45.0 °F 42.6 °F 42.1 °F 90% 30.05 in 10.0 mi SE 4.6 mph - N/A   Clear
3:53 AM 44.1 °F 41.5 °F 39.9 °F 85% 30.06 in 10.0 mi SSE 4.6 mph - N/A   Mostly Cloudy
4:53 AM 45.0 °F 42.6 °F 41.0 °F 86% 30.06 in 10.0 mi East 4.6 mph - N/A   Overcast
5:53 AM 46.9 °F - 41.0 °F 80% 30.08 in 10.0 mi ESE 6.9 mph - N/A   Overcast
6:26 AM 46.9 °F - 41.0 °F 80% 30.21 in 10.0 mi ESE 4.6 mph - N/A   Scattered Clouds
6:53 AM 46.0 °F 43.9 °F 39.9 °F 79% 30.10 in 10.0 mi ESE 4.6 mph - N/A   Partly Cloudy
7:53 AM 51.1 °F - 39.9 °F 66% 30.11 in 10.0 mi Calm Calm - N/A   Clear
8:53 AM 53.1 °F - 43.0 °F 69% 30.11 in 10.0 mi North 4.6 mph - N/A   Clear
9:25 AM 53.1 °F - 44.1 °F 71% 30.24 in 10.0 mi Variable 4.6 mph - N/A   Mostly Cloudy
9:38 AM 55.0 °F - 45.0 °F 69% 30.24 in 10.0 mi Variable 5.8 mph - N/A   Scattered Clouds
9:53 AM 55.0 °F - 45.0 °F 69% 30.11 in 10.0 mi Calm Calm - N/A   Scattered Clouds
10:53 AM 57.0 °F - 44.1 °F 62% 30.10 in 10.0 mi Variable 3.5 mph - N/A   Clear
11:53 AM 61.0 °F - 46.0 °F 58% 30.08 in 10.0 mi Variable 3.5 mph - N/A   Clear
12:53 PM 64.0 °F - 45.0 °F 50% 30.06 in 10.0 mi Variable 3.5 mph - N/A   Clear
1:53 PM 66.0 °F - 41.0 °F 40% 30.04 in 10.0 mi Variable 3.5 mph - N/A   Clear
2:53 PM 70.0 °F - 37.0 °F 30% 30.01 in 10.0 mi NNW 8.1 mph - N/A   Clear
3:53 PM 73.0 °F - 39.9 °F 30% 29.99 in 10.0 mi Variable 5.8 mph - N/A   Clear
4:53 PM 73.9 °F - 35.1 °F 24% 29.97 in 10.0 mi Variable 3.5 mph - N/A   Clear
5:53 PM 73.0 °F - 30.9 °F 21% 29.95 in 10.0 mi West 6.9 mph - N/A   Clear
6:53 PM 73.0 °F - 28.0 °F 19% 29.96 in 10.0 mi SSW 5.8 mph - N/A   Clear
7:53 PM 73.0 °F - 28.0 °F 19% 29.96 in 10.0 mi Calm Calm - N/A   Clear
8:53 PM 64.0 °F - 39.0 °F 40% 29.99 in 10.0 mi East 4.6 mph - N/A   Clear
9:53 PM 59.0 °F - 43.0 °F 55% 30.04 in 10.0 mi SSE 9.2 mph - N/A   Clear
10:53 PM 57.0 °F - 41.0 °F 55% 30.05 in 10.0 mi SE 9.2 mph - N/A   Clear
11:53 PM 55.9 °F - 37.9 °F 51% 30.05 in 10.0 mi SE 11.5 mph - N/A   Clear